Total_Precipitation_Accumulation
1.30 1.24 1.11 0.91 0.81 0.82 0.84 0.82 0.77 0.78 0.75 0.75 0.72 0.77 0.90 0.91 0.91 1.06 1.16 1.18 1.31 1.40 1.40 1.44 1.60 1.73 1.86 1.89 1.88 1.87 1.92 1.87 1.74 1.50 1.18 1.00 1.07 1.08 1.14 1.00 0.99 1.03 0.95
1.02 0.91 0.78 0.64 0.59 0.63 0.64 0.61 0.53 0.55 0.51 0.56 0.60 0.60 0.78 0.95 0.98 1.02 1.02 1.02 1.13 1.23 1.26 1.32 1.38 1.40 1.52 1.66 1.76 1.74 1.82 1.87 1.83 1.72 1.43 1.18 1.16 1.22 1.37 1.35 1.24 1.15 1.12
0.95 0.79 0.71 0.65 0.62 0.61 0.55 0.50 0.42 0.39 0.42 0.46 0.57 0.57 0.63 0.78 0.90 0.91 0.90 0.93 0.98 1.05 1.09 1.15 1.18 1.25 1.38 1.41 1.48 1.57 1.65 1.71 1.81 1.76 1.66 1.53 1.35 1.28 1.33 1.31 1.37 1.50 1.45
1.14 0.93 0.81 0.74 0.64 0.54 0.44 0.42 0.38 0.42 0.47 0.44 0.43 0.46 0.53 0.63 0.75 0.76 0.77 0.80 0.83 0.85 0.97 1.05 1.10 1.14 1.24 1.31 1.32 1.44 1.57 1.66 1.69 1.67 1.60 1.52 1.46 1.42 1.41 1.38 1.43 1.57 1.65
0.85 0.64 0.55 0.53 0.50 0.40 0.34 0.33 0.32 0.32 0.30 0.32 0.29 0.31 0.36 0.45 0.51 0.53 0.60 0.68 0.74 0.78 0.88 0.91 0.94 0.90 0.94 1.01 1.01 1.20 1.37 1.55 1.62 1.65 1.55 1.43 1.37 1.39 1.37 1.37 1.44 1.60 1.63
0.52 0.43 0.38 0.33 0.29 0.28 0.26 0.24 0.21 0.19 0.17 0.20 0.22 0.25 0.30 0.32 0.39 0.39 0.42 0.55 0.65 0.71 0.77 0.79 0.86 0.88 0.84 0.79 0.79 0.87 1.01 1.15 1.34 1.47 1.49 1.41 1.33 1.31 1.40 1.49 1.49 1.58 1.67
0.25 0.21 0.21 0.22 0.20 0.17 0.17 0.17 0.18 0.17 0.14 0.15 0.17 0.23 0.25 0.22 0.26 0.25 0.37 0.57 0.60 0.60 0.59 0.72 0.83 0.89 0.92 0.94 0.83 0.82 0.83 0.86 0.97 1.15 1.29 1.29 1.27 1.28 1.37 1.45 1.50 1.55 1.46
0.19 0.16 0.15 0.17 0.18 0.19 0.20 0.20 0.17 0.14 0.13 0.18 0.19 0.25 0.23 0.16 0.19 0.23 0.31 0.46 0.52 0.50 0.52 0.63 0.79 0.90 0.94 0.96 0.92 0.98 0.95 0.84 0.81 0.88 1.07 1.15 1.16 1.30 1.44 1.57 1.65 1.62 1.56
0.16 0.17 0.16 0.17 0.18 0.17 0.16 0.16 0.15 0.14 0.13 0.17 0.21 0.22 0.19 0.15 0.16 0.22 0.31 0.45 0.52 0.52 0.49 0.57 0.73 0.82 0.93 0.96 0.93 1.03 1.03 0.85 0.77 0.87 0.92 0.98 1.07 1.21 1.40 1.56 1.65 1.64 1.60
0.15 0.18 0.20 0.20 0.18 0.16 0.18 0.20 0.17 0.15 0.15 0.16 0.19 0.19 0.18 0.19 0.19 0.19 0.26 0.34 0.43 0.50 0.51 0.56 0.75 0.83 0.87 0.84 0.86 1.06 1.15 1.01 0.76 0.75 0.83 0.95 1.04 1.16 1.39 1.54 1.78 1.80 1.59
0.14 0.17 0.17 0.17 0.17 0.19 0.20 0.24 0.22 0.20 0.17 0.16 0.17 0.17 0.15 0.16 0.18 0.19 0.25 0.24 0.28 0.33 0.40 0.45 0.49 0.62 0.66 0.72 0.82 0.92 1.02 0.92 0.82 0.90 1.00 1.03 1.09 1.15 1.24 1.36 1.60 1.81 1.74
0.15 0.16 0.16 0.17 0.19 0.22 0.22 0.20 0.18 0.17 0.16 0.15 0.14 0.14 0.15 0.15 0.15 0.17 0.22 0.22 0.25 0.29 0.32 0.37 0.42 0.54 0.58 0.64 0.69 0.74 0.78 0.82 0.87 1.01 1.03 0.95 0.99 1.05 1.06 1.16 1.33 1.47 1.39
0.14 0.16 0.18 0.21 0.24 0.24 0.24 0.20 0.19 0.17 0.18 0.18 0.17 0.18 0.19 0.18 0.16 0.19 0.22 0.23 0.26 0.27 0.29 0.36 0.39 0.47 0.47 0.51 0.59 0.62 0.68 0.89 1.02 0.98 0.95 0.92 0.91 0.94 0.93 1.04 1.23 1.37 1.32
0.15 0.18 0.20 0.22 0.25 0.27 0.24 0.22 0.20 0.19 0.22 0.24 0.24 0.23 0.23 0.24 0.20 0.20 0.21 0.25 0.30 0.31 0.32 0.36 0.39 0.44 0.45 0.47 0.54 0.63 0.74 0.90 1.05 0.93 0.81 0.81 0.84 0.93 0.99 0.97 1.05 1.13 1.27
0.17 0.20 0.23 0.24 0.26 0.27 0.26 0.25 0.25 0.24 0.27 0.30 0.29 0.29 0.27 0.26 0.27 0.30 0.27 0.28 0.32 0.33 0.35 0.42 0.53 0.62 0.62 0.62 0.68 0.72 0.75 0.76 0.83 0.78 0.77 0.83 0.90 0.91 0.96 0.98 0.98 0.98 1.00
0.17 0.20 0.23 0.24 0.26 0.27 0.29 0.29 0.31 0.30 0.31 0.30 0.30 0.29 0.27 0.28 0.32 0.35 0.37 0.36 0.38 0.40 0.47 0.50 0.61 0.75 0.80 0.83 0.83 0.83 0.85 0.81 0.82 0.79 0.82 0.85 0.85 0.84 0.84 0.91 1.00 1.06 0.99
0.18 0.21 0.22 0.22 0.22 0.25 0.27 0.32 0.36 0.35 0.31 0.28 0.29 0.29 0.27 0.28 0.30 0.31 0.34 0.37 0.41 0.49 0.49 0.53 0.71 0.78 0.76 0.79 0.85 0.89 0.83 0.73 0.74 0.76 0.73 0.73 0.72 0.70 0.71 0.76 0.84 0.92 0.93
0.22 0.24 0.26 0.24 0.24 0.27 0.28 0.28 0.32 0.36 0.35 0.29 0.27 0.27 0.27 0.27 0.28 0.29 0.33 0.37 0.43 0.50 0.55 0.72 0.89 0.94 0.88 0.82 0.79 0.76 0.68 0.63 0.62 0.62 0.65 0.66 0.69 0.70 0.69 0.68 0.70 0.73 0.77
0.24 0.24 0.25 0.26 0.26 0.27 0.27 0.26 0.26 0.27 0.29 0.29 0.28 0.28 0.29 0.29 0.30 0.32 0.34 0.36 0.42 0.49 0.59 0.72 0.84 0.94 0.90 0.77 0.68 0.63 0.59 0.58 0.57 0.57 0.61 0.66 0.67 0.69 0.68 0.68 0.67 0.70 0.72
0.22 0.28 0.29 0.28 0.28 0.28 0.29 0.30 0.28 0.28 0.30 0.31 0.31 0.34 0.37 0.34 0.34 0.39 0.42 0.42 0.45 0.50 0.52 0.56 0.60 0.61 0.58 0.57 0.61 0.58 0.56 0.59 0.59 0.58 0.61 0.64 0.68 0.74 0.73 0.69 0.69 0.69 0.68
0.21 0.28 0.31 0.28 0.25 0.28 0.33 0.35 0.33 0.32 0.31 0.31 0.30 0.34 0.37 0.35 0.37 0.41 0.42 0.43 0.47 0.51 0.51 0.51 0.52 0.54 0.54 0.52 0.54 0.54 0.54 0.56 0.58 0.59 0.63 0.66 0.67 0.69 0.73 0.72 0.70 0.70 0.70
0.22 0.26 0.28 0.30 0.30 0.33 0.36 0.36 0.35 0.33 0.31 0.31 0.30 0.32 0.36 0.36 0.38 0.38 0.39 0.41 0.44 0.47 0.49 0.48 0.46 0.50 0.53 0.52 0.54 0.56 0.55 0.54 0.56 0.61 0.65 0.69 0.71 0.69 0.69 0.70 0.70 0.69 0.68
0.24 0.25 0.26 0.31 0.35 0.39 0.39 0.38 0.35 0.33 0.32 0.32 0.33 0.35 0.36 0.37 0.38 0.37 0.38 0.41 0.43 0.45 0.47 0.47 0.45 0.46 0.48 0.47 0.48 0.52 0.53 0.52 0.55 0.61 0.70 0.74 0.77 0.77 0.75 0.72 0.70 0.71 0.71
0.27 0.30 0.31 0.33 0.36 0.36 0.36 0.40 0.41 0.38 0.36 0.34 0.33 0.35 0.37 0.37 0.39 0.41 0.39 0.38 0.38 0.41 0.42 0.43 0.44 0.44 0.47 0.49 0.49 0.50 0.50 0.51 0.54 0.59 0.66 0.74 0.77 0.78 0.82 0.84 0.82 0.79 0.78
0.34 0.35 0.35 0.37 0.37 0.38 0.39 0.40 0.43 0.43 0.40 0.39 0.38 0.37 0.40 0.40 0.41 0.43 0.41 0.39 0.39 0.40 0.44 0.44 0.44 0.43 0.44 0.46 0.48 0.50 0.58 0.59 0.56 0.56 0.60 0.70 0.75 0.76 0.77 0.81 0.87 0.88 0.86
0.39 0.41 0.40 0.39 0.42 0.42 0.43 0.43 0.42 0.41 0.41 0.41 0.40 0.40 0.42 0.46 0.48 0.51 0.51 0.52 0.52 0.50 0.50 0.51 0.50 0.50 0.50 0.48 0.47 0.52 0.57 0.54 0.52 0.54 0.56 0.61 0.68 0.73 0.76 0.79 0.82 0.89 0.93